EW7535 Weather Reports


Display with metric or nautical units.
time (UTC)temp
F
wind
direction
speed
MPH
gust
MPH
rain 1hr
in
rain 24hr
in
rain mn
in
humidity
%
barometer
mb
20260906014552 91 261 6.0 11.0 0.00 0.00 0.00 37 1006.3
20260906013050 92 230 6.0 14.0 0.00 0.00 0.00 37 1006.2
20260906011548 93 304 7.0 13.0 0.00 0.00 0.00 36 1006.2
20260906010113 93 283 9.0 15.0 0.00 0.00 0.00 36 1006.4
20260906004556 94 285 9.0 17.0 0.00 0.00 0.00 35 1006.2
20260906003046 94 270 8.0 16.0 0.00 0.00 0.00 35 1006.2
20260906001559 95 302 7.0 17.0 0.00 0.00 0.00 35 1006.2
20260906000044 95 285 9.0 17.0 0.00 0.00 0.00 35 1006.2
20260905234540 95 297 8.0 19.0 0.00 0.00 0.00 35 1006.2
20260905233040 96 294 9.0 15.0 0.00 0.00 0.00 34 1006.2
20260905231537 96 298 9.0 16.0 0.00 0.00 0.00 32 1006.3
20260905230039 96 283 6.0 14.0 0.00 0.00 0.00 33 1006.4
20260905224533 96 261 6.0 14.0 0.00 0.00 0.00 32 1006.4
20260905223045 95 266 9.0 17.0 0.00 0.00 0.00 33 1006.5
20260905221529 96 326 6.0 12.0 0.00 0.00 0.00 33 1006.7
20260905220026 95 306 11.0 23.0 0.00 0.00 0.00 34 1006.8
20260905214554 95 281 4.0 15.0 0.00 0.00 0.00 34 1007.0
20260905213103 94 302 6.0 22.0 0.00 0.00 0.00 34 1007.2
20260905211548 95 261 5.0 11.0 0.00 0.00 0.00 35 1007.3
20260905210057 95 284 5.0 9.0 0.00 0.00 0.00 35 1007.6
20260905204545 95 298 7.0 12.0 0.00 0.00 0.00 36 1007.7
20260905203041 94 255 3.0 10.0 0.00 0.00 0.00 36 1008.0
20260905201535 93 269 2.0 12.0 0.00 0.00 0.00 38 1008.3
20260905200101 94 286 2.0 11.0 0.00 0.00 0.00 38 1008.4
20260905194531 93 286 5.0 14.0 0.00 0.00 0.00 38 1008.6
20260905193036 93 274 4.0 11.0 0.00 0.00 0.00 40 1008.8
20260905191533 93 271 4.0 15.0 0.00 0.00 0.00 39 1009.0
20260905191529 93 274 4.0 15.0 0.00 0.00 0.00 39 1009.0
20260905190026 92 291 4.0 9.0 0.00 0.00 0.00 40 1009.2
20260905184533 92 290 5.0 10.0 0.00 0.00 0.00 41 1009.5
20260905183031 91 279 4.0 9.0 0.00 0.00 0.00 43 1009.7
20260905181518 90 275 6.0 11.0 0.00 0.00 0.00 43 1009.8
20260905180049 90 247 3.0 10.0 0.00 0.00 0.00 46 1009.9
20260905174545 88 269 2.0 6.0 0.00 0.00 0.00 47 1010.0
20260905173018 88 307 1.0 8.0 0.00 0.00 0.00 48 1010.1
20260905171515 88 292 0.0 3.0 0.00 0.00 0.00 49 1010.2
20260905170010 88 292 0.0 5.0 0.00 0.00 0.00 48 1010.4
20260905164512 88 304 0.0 3.0 0.00 0.00 0.00 48 1010.4
20260905163006 88 148 0.0 2.0 0.00 0.00 0.00 51 1010.5
20260905161505 88 139 0.0 3.0 0.00 0.00 0.00 52 1010.4
20260905160032 87 205 0.0 0.0 0.00 0.00 0.00 52 1010.4
20260905154530 86 137 0.0 2.0 0.00 0.00 0.00 53 1010.3
20260905153032 85 106 0.0 2.0 0.00 0.00 0.00 55 1010.4
20260905151522 84 115 0.0 2.0 0.00 0.00 0.00 57 1010.4
20260905150023 82 127 0.0 3.0 0.00 0.00 0.00 60 1010.4
20260905144517 81 122 0.0 3.0 0.00 0.00 0.00 63 1010.4
20260905143015 80 141 0.0 4.0 0.00 0.00 0.00 64 1010.4
20260905141511 79 106 0.0 3.0 0.00 0.00 0.00 67 1010.2
20260905140005 77 126 0.0 3.0 0.00 0.00 0.00 69 1010.0
20260905134509 77 86 0.0 0.0 0.00 0.00 0.00 69 1009.8
20260905133059 75 86 0.0 0.0 0.00 0.00 0.00 73 1009.5
20260905131605 74 85 0.0 0.0 0.00 0.00 0.00 74 1009.3
20260905130056 74 85 0.0 0.0 0.00 0.00 0.00 73 1009.1
20260905124555 74 86 0.0 0.0 0.00 0.00 0.00 73 1009.0
20260905123106 75 103 0.0 0.0 0.00 0.00 0.00 72 1009.0
20260905121549 74 90 0.0 0.0 0.00 0.00 0.00 72 1009.0
20260905120048 75 59 0.0 0.0 0.00 0.00 0.00 72 1008.8
20260905114549 75 59 0.0 0.0 0.00 0.00 0.00 71 1008.8
20260905113024 75 96 0.0 0.0 0.00 0.00 0.00 70 1008.8
20260905111514 76 96 0.0 2.0 0.00 0.00 0.00 69 1008.9
20260905110011 76 92 0.0 0.0 0.00 0.00 0.00 69 1008.8
20260905104510 76 104 0.0 0.0 0.00 0.00 0.00 69 1008.7
20260905103010 76 104 0.0 0.0 0.00 0.00 0.00 69 1008.7
20260905101508 76 104 0.0 0.0 0.00 0.00 0.00 68 1008.9
20260905100005 76 104 0.0 0.0 0.00 0.00 0.00 68 1008.9
20260905094505 76 100 0.0 0.0 0.00 0.00 0.00 67 1008.7
20260905093004 77 100 0.0 0.0 0.00 0.00 0.00 67 1008.7
20260905091503 77 100 0.0 0.0 0.00 0.00 0.00 67 1008.9
20260905090059 77 100 0.0 2.0 0.00 0.00 0.00 66 1008.7
20260905084609 77 105 0.0 0.0 0.00 0.00 0.00 67 1008.8
20260905083057 77 105 0.0 0.0 0.00 0.00 0.00 65 1008.8
20260905081553 77 105 0.0 0.0 0.00 0.00 0.00 65 1008.9
20260905080028 78 105 0.0 0.0 0.00 0.00 0.00 64 1009.1
20260905074519 79 105 0.0 0.0 0.00 0.00 0.00 63 1009.1
20260905073023 79 128 0.0 0.0 0.00 0.00 0.00 63 1009.0
20260905071519 79 128 0.0 0.0 0.00 0.00 0.00 63 1009.0
20260905070015 80 128 0.0 0.0 0.00 0.00 0.00 60 1008.8
20260905064514 81 128 0.0 0.0 0.00 0.00 0.00 59 1009.0
20260905063114 81 105 0.0 0.0 0.00 0.00 0.00 59 1008.9
20260905061546 81 100 1.0 3.0 0.00 0.00 0.00 58 1008.8
20260905060055 82 95 0.0 0.0 0.00 0.00 0.00 58 1008.8
20260905054546 82 86 0.0 2.0 0.00 0.00 0.00 56 1008.7
20260905053040 83 99 0.0 4.0 0.00 0.00 0.00 52 1008.5
20260905051551 83 100 0.0 0.0 0.00 0.00 0.00 50 1008.4
20260905050041 84 260 0.0 0.0 0.00 0.00 0.00 48 1008.3
20260905044542 85 260 0.0 0.0 0.00 0.00 0.00 46 1008.2
20260905043038 85 260 0.0 0.0 0.00 0.00 0.00 45 1008.3
20260905041535 85 260 0.0 0.0 0.00 0.00 0.00 46 1008.4
20260905040046 85 260 0.0 0.0 0.00 0.00 0.00 46 1008.3
20260905034534 85 260 0.0 0.0 0.00 0.00 0.00 45 1008.2
20260905033032 85 260 0.0 0.0 0.00 0.00 0.00 44 1008.0
20260905031539 86 260 0.0 0.0 0.00 0.00 0.00 43 1007.9
20260905030034 86 260 0.0 0.0 0.00 0.00 0.00 42 1007.7
20260905024528 87 260 0.0 0.0 0.00 0.00 0.00 42 1007.5
20260905023028 87 260 0.0 0.0 0.00 0.00 0.00 40 1007.1
20260905021536 89 260 0.0 0.0 0.00 0.00 0.00 38 1007.0
20260905020029 90 260 0.0 0.0 0.00 0.00 0.00 37 1006.9